Satellite-Ground Cal/Val Region Overpasses Predictions

Prediction of Satellite NPP Overpassing Cal/Val Region: PacNW

Region Location: (Latitude: 10.00, Longitude: 139.50) to (Latitude: 22.70, Longitude: 165.60).

Table of predicted overpasses for the next 14.0 days since TLE Epoch: 7/7/2017
Interval Starting Time Starting Location Ending Time Ending Location
1 07/08/2017 03:36:06 ( 10.01, 145.72) 07/08/2017 03:39:42 ( 22.69, 142.70)
2 07/08/2017 14:29:44 ( 11.24, 165.60) 07/08/2017 14:30:05 ( 10.01, 165.32)
3 07/08/2017 16:07:59 ( 22.68, 142.96) 07/08/2017 16:11:35 ( 10.00, 139.94)
4 07/09/2017 03:17:05 ( 10.05, 150.47) 07/09/2017 03:20:40 ( 22.67, 147.47)
5 07/09/2017 15:48:58 ( 22.64, 147.71) 07/09/2017 15:52:33 ( 10.02, 144.71)
6 07/10/2017 02:58:03 ( 10.03, 155.24) 07/10/2017 03:01:38 ( 22.65, 152.23)
7 07/10/2017 15:29:55 ( 22.67, 152.47) 07/10/2017 15:33:30 ( 10.05, 149.47)
8 07/11/2017 02:39:00 ( 10.01, 160.00) 07/11/2017 02:42:36 ( 22.69, 156.98)
9 07/11/2017 15:10:53 ( 22.69, 157.24) 07/11/2017 15:14:29 ( 10.01, 154.22)
10 07/12/2017 02:19:59 ( 10.04, 164.75) 07/12/2017 02:23:34 ( 22.67, 161.75)
11 07/12/2017 14:51:51 ( 22.65, 161.99) 07/12/2017 14:55:26 ( 10.03, 158.99)
12 07/13/2017 03:42:26 ( 10.03, 144.14) 07/13/2017 03:46:01 ( 22.65, 141.13)
13 07/13/2017 14:34:10 ( 17.92, 165.59) 07/13/2017 14:36:24 ( 10.05, 163.75)
14 07/13/2017 16:14:19 ( 22.67, 141.38) 07/13/2017 16:16:31 ( 14.92, 139.50)
15 07/14/2017 03:23:24 ( 10.01, 148.90) 07/14/2017 03:27:00 ( 22.69, 145.88)
16 07/14/2017 15:55:16 ( 22.69, 146.14) 07/14/2017 15:58:52 ( 10.01, 143.12)
17 07/15/2017 03:04:22 ( 10.05, 153.65) 07/15/2017 03:07:57 ( 22.67, 150.65)
18 07/15/2017 15:36:15 ( 22.65, 150.89) 07/15/2017 15:39:50 ( 10.03, 147.89)
19 07/16/2017 02:45:20 ( 10.03, 158.42) 07/16/2017 02:48:55 ( 22.65, 155.41)
20 07/16/2017 15:17:13 ( 22.67, 155.66) 07/16/2017 15:20:48 ( 10.05, 152.65)
21 07/17/2017 02:26:17 ( 10.01, 163.18) 07/17/2017 02:29:53 ( 22.69, 160.16)
22 07/17/2017 14:58:10 ( 22.69, 160.42) 07/17/2017 15:01:46 ( 10.01, 157.40)
23 07/18/2017 02:10:05 ( 19.97, 165.60) 07/18/2017 02:10:51 ( 22.67, 164.93)
24 07/18/2017 03:48:46 ( 10.05, 142.56) 07/18/2017 03:52:21 ( 22.68, 139.55)
25 07/18/2017 14:39:09 ( 22.65, 165.17) 07/18/2017 14:42:44 ( 10.03, 162.17)
26 07/18/2017 16:20:39 ( 22.64, 139.80) 07/18/2017 16:20:59 ( 21.47, 139.50)
27 07/19/2017 03:29:43 ( 10.03, 147.32) 07/19/2017 03:33:18 ( 22.66, 144.32)
28 07/19/2017 16:01:36 ( 22.66, 144.56) 07/19/2017 16:05:11 ( 10.05, 141.56)
29 07/20/2017 03:10:41 ( 10.01, 152.08) 07/20/2017 03:14:17 ( 22.70, 149.07)
30 07/20/2017 15:42:34 ( 22.68, 149.32) 07/20/2017 15:46:10 ( 10.01, 146.31)
31 07/21/2017 02:51:39 ( 10.05, 156.83) 07/21/2017 02:55:14 ( 22.68, 153.83)


NCC Satellite Cal/Val Overpasses Prediction Service
